Temperature
16 16 15 15 15 15 15 15 15 15 15 15 15 15 15 15 15 15 15 15 15 14 14 15 15 15 15 15 15 15 15 15 15 15 15 15 15 15 15 15 15 15 15
15 15 15 15 15 15 15 15 15 15 15 15 15 15 15 14 14 14 14 14 14 14 14 14 14 14 14 14 15 15 15 15 15 15 15 15 15 15 15 15 15 15 15
15 15 15 15 15 15 15 15 14 15 15 15 15 15 14 14 14 14 14 14 14 14 14 14 14 14 14 14 14 14 14 14 14 14 14 14 14 14 14 14 14 14 14
15 15 15 15 15 15 14 14 14 14 14 14 14 14 14 14 14 14 14 14 14 14 14 14 14 14 14 14 14 14 14 14 14 14 14 14 14 14 14 14 14 14 14
15 15 15 15 15 14 14 14 14 14 14 14 14 14 14 14 14 14 14 14 14 14 14 14 14 14 14 14 14 14 14 14 14 14 14 14 14 14 14 14 14 14 14
15 15 15 15 14 14 14 14 14 14 14 14 14 14 14 14 14 14 14 14 14 14 14 14 14 14 13 13 13 13 13 13 13 13 13 13 13 13 13 13 13 13 13
15 15 15 14 14 14 14 14 14 14 14 13 13 13 13 14 14 14 14 14 14 14 14 13 13 13 13 13 13 13 13 13 13 13 13 13 13 13 13 13 13 13 13
14 14 14 14 14 14 14 14 14 13 13 13 13 13 13 13 13 13 13 13 14 14 13 13 13 13 13 13 13 13 13 13 13 13 13 13 13 13 12 13 13 12 12
14 14 14 14 14 14 14 14 13 13 13 13 13 13 13 13 13 13 13 13 13 13 13 13 13 13 13 13 13 12 12 12 13 13 12 12 12 12 12 12 12 12 12
14 14 14 13 13 13 13 13 13 13 13 13 13 13 13 13 13 13 13 13 13 13 13 13 13 13 13 13 12 12 12 12 12 12 12 12 12 12 12 12 12 12 12
14 13 13 13 13 13 13 13 13 13 13 13 13 13 13 13 13 13 13 13 13 13 13 13 13 13 13 13 12 12 12 12 12 12 12 12 12 12 12 12 12 12 11
13 13 13 13 13 13 13 13 13 13 13 13 13 12 12 12 13 13 12 13 13 13 13 13 13 13 13 13 13 12 12 12 12 12 12 12 12 12 12 12 11 11 11
13 13 13 13 13 13 13 12 12 13 12 12 12 12 12 12 12 12 12 12 12 12 12 13 13 13 13 13 12 12 12 12 12 12 12 12 11 11 11 11 11 11 11
13 13 13 13 13 12 12 12 12 12 12 12 12 12 12 12 12 12 12 12 12 12 12 12 12 12 12 12 12 12 12 12 12 12 12 11 11 11 11 11 11 11 11
13 13 13 12 12 12 12 12 12 12 12 12 12 12 12 12 12 12 12 12 12 11 12 12 12 12 12 12 12 12 12 11 11 11 11 11 11 11 11 11 11 11 11
13 13 12 12 12 12 12 12 12 12 12 12 12 12 12 12 12 12 12 12 11 11 11 11 12 12 11 12 12 11 11 11 11 11 11 11 11 11 11 11 11 11 10
12 12 12 12 12 12 12 12 12 12 12 12 12 12 12 11 11 11 11 11 11 11 11 11 11 11 11 11 11 11 11 11 11 11 11 11 11 11 11 11 11 10 10
12 12 12 12 12 12 12 12 12 12 12 12 12 11 11 11 11 11 11 11 11 11 11 11 11 11 11 11 11 11 11 11 11 11 11 11 10 10 10 10 10 10 10
12 12 12 12 12 12 12 12 12 11 11 11 11 11 11 11 11 11 11 11 11 11 11 10 11 11 11 10 11 11 11 11 11 11 10 10 10 10 10 10 10 10 10
12 12 12 12 12 11 12 11 11 11 11 11 11 11 11 11 11 11 11 11 11 10 10 10 10 10 10 10 10 10 10 10 10 10 10 10 10 10 10 10 10 10 10
12 12 11 11 11 11 11 11 11 11 11 11 11 11 11 11 11 11 10 10 10 10 10 10 10 10 10 10 10 10 10 10 10 10 10 10 10 10 10 10 9 9 9
11 11 11 11 11 11 11 11 11 11 11 11 11 11 11 10 10 10 10 10 10 10 10 10 10 10 10 10 10 10 10 10 10 10 10 10 9 10 10 9 9 9 9
11 11 11 11 11 11 11 11 11 11 10 10 11 10 10 10 10 10 10 10 10 10 10 10 10 10 10 10 10 9 9 9 9 9 9 9 9 9 9 9 9 9 9
11 11 11 11 11 11 10 10 10 10 10 10 10 10 10 10 10 10 10 10 10 9 9 9 9 9 9 9 9 9 9 9 9 9 9 9 9 9 9 9 9 9 9
10 10 10 10 10 10 10 10 10 10 10 10 10 10 10 10 10 9 9 9 9 9 9 9 9 9 9 9 9 9 9 8 8 9 9 8 9 9 9 9 9 9 9
10 10 10 10 10 10 10 10 10 9 9 9 10 9 9 9 9 9 9 9 9 9 9 9 9 9 9 9 8 8 8 8 8 8 8 8 8 8 8 8 9 8 8
Wind_Speed
2 3 3 4 5 5 4 4 4 4 4 5 5 6 5 6 6 6 6 9 9 9 9 9 8 8 9 9 10 10 10 10 11 11 11 10 9 9 9 8 9 9 9
3 3 3 3 4 4 4 4 3 3 3 3 4 5 5 5 6 6 6 8 9 9 9 8 8 8 9 9 10 10 10 11 11 11 11 11 10 10 9 9 9 9 10
4 3 2 2 3 4 4 4 4 3 3 3 4 4 4 4 5 5 6 7 7 8 9 9 8 8 9 9 9 10 11 11 11 11 11 11 10 11 10 10 10 10 10
5 4 2 2 3 4 4 3 3 3 3 3 3 3 3 3 4 4 5 6 6 7 7 9 9 8 8 8 9 10 11 11 11 11 11 11 11 11 11 11 11 11 11
5 4 3 2 4 3 3 2 3 2 2 3 3 3 3 3 3 3 4 5 5 5 5 7 8 8 8 8 8 9 9 9 9 10 10 10 10 11 11 11 11 12 12
4 5 3 3 3 3 3 3 3 3 2 2 3 3 3 3 3 3 2 3 4 4 4 5 5 5 6 7 7 8 7 7 7 8 9 10 10 10 11 10 11 11 11
3 4 3 2 2 2 2 2 2 3 2 2 2 3 3 3 3 3 2 2 3 3 4 4 4 3 4 5 6 6 7 6 7 8 9 9 10 10 10 10 10 10 10
2 2 2 2 2 2 2 2 2 2 1 2 2 2 2 3 3 3 3 2 2 3 3 3 3 3 3 3 4 5 5 6 6 7 7 7 8 8 8 8 8 8 8
2 2 2 2 2 2 1 1 2 2 1 1 1 2 2 2 2 3 2 3 3 2 2 3 2 2 1 2 2 3 4 5 5 6 6 6 6 7 7 7 7 7 7
1 1 2 2 2 1 1 1 1 1 2 1 1 1 1 2 2 1 3 3 3 2 2 2 2 1 0 1 1 2 3 4 5 5 5 5 5 5 5 5 6 6 6
0 1 1 1 1 1 2 1 1 1 1 2 1 1 1 1 1 2 1 3 3 2 2 2 1 1 0 1 1 2 3 3 4 4 4 4 5 5 5 5 5 4 4
1 1 1 1 1 2 2 2 2 2 2 1 1 2 2 2 2 2 2 2 2 3 2 2 1 1 1 1 2 3 3 3 3 3 3 3 4 4 4 4 3 3 3
2 3 2 2 2 2 2 2 3 2 2 2 3 2 3 2 2 2 2 2 1 2 2 2 2 2 1 1 3 4 4 4 4 4 3 3 2 3 2 2 2 3 3
3 3 3 3 3 3 2 2 2 3 2 3 3 2 2 3 2 3 3 3 1 1 2 3 2 2 2 2 3 4 4 5 5 4 4 3 2 2 2 1 1 1 2
3 3 3 3 3 3 3 2 2 3 2 3 3 3 2 1 2 2 2 3 4 2 3 3 2 2 2 2 2 3 4 5 5 5 4 4 3 2 2 1 1 1 1
3 2 2 3 3 3 2 2 3 3 3 2 2 2 2 1 1 1 2 2 3 3 3 2 3 2 2 2 3 3 4 5 6 6 5 5 4 4 3 3 2 1 2
3 3 3 2 2 3 3 3 3 3 4 3 2 3 3 2 1 1 1 1 2 2 3 2 1 1 1 1 1 2 3 4 5 6 6 6 6 5 5 4 3 3 2
3 3 3 2 2 3 3 3 4 4 4 4 4 3 3 2 2 2 2 2 2 3 3 3 1 1 1 2 1 1 2 3 3 6 7 7 6 6 5 5 4 4 4
3 3 3 3 3 3 3 3 3 4 5 4 4 5 4 4 3 3 3 3 2 2 2 2 2 1 1 0 0 0 0 1 2 4 6 7 7 6 6 6 6 6 6
4 4 4 4 4 4 3 3 3 3 4 4 4 4 4 5 5 4 4 4 3 2 2 2 2 1 1 1 1 1 1 1 1 2 3 4 5 6 7 8 8 8 8
4 4 4 4 4 4 4 4 4 4 3 3 3 4 4 5 6 5 4 4 4 3 2 2 2 1 1 1 2 2 2 1 1 1 1 2 3 4 5 8 9 9 9
3 3 4 4 4 4 5 5 4 4 4 3 3 3 3 4 5 6 6 5 6 5 4 4 3 3 4 4 3 2 2 1 2 2 2 2 2 3 5 7 9 10 10
3 4 4 4 5 6 6 5 5 4 4 4 4 3 3 3 3 3 5 5 5 5 6 5 5 5 4 5 5 4 4 4 4 2 3 3 2 3 5 7 10 11 11
3 4 5 5 5 6 6 5 5 3 3 3 4 4 4 3 3 3 2 2 3 4 6 5 6 6 6 5 6 5 5 3 1 1 3 2 2 3 3 6 9 10 11
3 3 3 4 5 6 6 5 4 2 2 3 3 3 3 4 4 3 3 2 3 4 5 6 6 6 6 6 5 3 3 3 2 2 3 3 2 2 2 3 6 9 9
4 3 3 4 4 5 5 4 4 3 3 3 2 3 4 4 4 3 3 3 4 5 3 2 3 5 4 5 7 6 6 4 2 3 4 4 2 2 2 2 2 5 6
Wind_Direction
72 60 54 53 54 59 62 62 64 64 56 57 63 66 56 46 38 35 36 45 51 59 64 65 67 71 76 77 74 76 75 76 74 74 76 77 80 84 85 87 86 87 85
84 76 65 56 53 60 68 73 70 70 60 61 56 60 61 51 40 35 35 35 40 48 54 59 64 73 75 78 77 75 76 77 77 78 76 74 77 81 81 83 86 87 88
96 89 80 62 54 67 74 75 67 67 65 62 52 49 56 53 47 37 36 34 33 40 47 52 60 68 72 76 78 79 78 78 78 78 77 75 78 79 78 81 82 86 87
103 99 90 71 66 75 77 77 69 68 61 60 51 35 34 37 40 42 43 37 34 33 37 45 51 58 64 73 80 81 78 78 83 81 78 77 79 79 77 75 77 81 83
98 96 85 72 74 73 67 82 66 76 80 70 63 45 30 24 19 33 38 35 36 36 35 37 46 54 59 68 76 78 77 78 84 84 81 79 79 80 80 77 78 83 83
92 91 84 75 80 79 67 70 80 64 72 73 70 50 25 14 22 26 16 26 30 31 38 42 41 45 58 63 70 78 78 80 84 84 83 82 83 82 85 84 83 84 85
101 95 81 75 76 88 90 89 87 76 58 50 67 32 8 14 28 14 8 21 18 15 31 41 45 41 46 56 64 79 78 80 85 88 86 83 82 82 84 82 84 86 87
114 108 95 105 95 94 89 81 88 94 54 45 94 83 16 353 356 4 4 10 352 7 15 20 39 42 47 52 56 76 83 87 93 94 93 89 85 82 85 88 88 90 90
131 118 120 112 109 111 130 135 118 124 138 30 63 129 134 227 308 336 357 6 1 0 347 1 19 25 59 63 59 75 94 100 103 100 100 98 95 89 84 88 91 92 92
149 146 145 136 136 137 155 184 141 141 142 148 35 59 139 158 153 324 331 343 352 351 335 338 340 345 52 99 111 107 103 106 112 109 105 106 104 96 90 93 94 93 97
210 186 183 168 171 178 193 189 153 177 172 167 164 144 98 70 125 159 273 318 336 321 308 307 319 331 299 190 170 158 140 129 121 115 109 107 105 106 97 94 101 102 104
266 255 221 217 211 205 211 209 198 193 193 186 183 180 169 169 181 170 199 259 294 303 309 311 302 301 276 239 202 184 172 158 141 127 113 109 106 105 103 99 101 104 113
251 248 235 227 230 232 223 201 201 209 203 201 204 211 208 209 173 167 168 199 256 292 314 316 300 300 267 241 221 199 185 177 167 156 141 127 118 111 108 112 112 108 108
237 242 239 238 237 240 233 203 211 217 207 214 216 210 213 217 195 178 171 162 170 305 307 285 309 297 289 249 224 198 193 191 180 176 170 161 154 136 141 143 137 140 128
243 244 242 239 241 233 224 208 226 231 208 214 216 209 207 221 198 198 184 174 166 206 253 257 264 284 283 251 224 198 200 201 192 190 188 184 180 170 167 158 161 177 178
244 236 249 249 248 239 227 212 225 227 206 218 208 197 214 230 194 181 189 189 179 182 221 247 244 273 275 260 228 213 214 211 202 198 197 196 194 193 189 178 172 174 189
229 229 235 245 254 254 235 217 224 210 204 214 209 199 213 205 195 190 166 170 187 174 210 266 276 313 260 263 274 218 214 215 213 208 206 206 207 207 205 203 199 198 200
226 224 225 235 250 256 238 219 228 216 205 209 213 204 216 203 202 204 189 193 201 190 190 232 265 267 252 254 246 230 220 216 222 219 215 215 214 212 213 214 209 209 212
230 223 217 228 242 246 242 237 229 221 211 212 209 206 213 197 214 215 200 203 208 195 177 190 225 242 275 262 98 271 282 268 241 229 219 216 217 219 220 220 220 220 220
225 227 229 232 237 239 239 234 226 229 222 220 217 210 207 203 214 209 205 206 197 180 169 177 208 228 245 240 161 201 245 265 254 238 223 223 225 228 230 229 227 224 223
233 229 228 240 244 240 237 231 221 218 223 228 227 220 219 217 220 210 208 199 185 183 178 185 204 197 217 191 209 198 208 249 264 225 213 239 229 233 238 238 234 229 225
242 233 228 230 242 251 255 239 224 209 213 218 230 237 235 232 241 227 223 205 189 188 195 193 197 213 224 212 191 184 176 170 255 222 184 240 209 234 240 235 235 232 229
240 240 239 234 242 253 259 248 230 204 206 215 220 232 244 241 234 236 234 222 215 208 195 190 197 217 216 209 185 187 196 201 220 202 170 230 217 241 246 240 241 236 233
234 237 239 238 241 252 255 247 232 205 212 226 224 222 233 253 240 211 205 219 232 230 226 219 221 227 221 206 196 196 197 193 232 211 169 210 224 242 258 243 242 236 232
239 244 243 240 243 254 250 241 221 197 222 243 246 235 232 246 254 209 187 219 251 261 246 232 235 239 232 207 178 152 156 165 227 235 189 192 216 244 261 251 242 236 233
235 244 255 251 247 252 250 233 204 194 220 248 258 255 245 245 258 219 204 214 241 255 255 254 252 253 247 218 192 189 187 189 203 227 199 189 197 183 256 255 246 237 232
Height
1534 1534 1534 1534 1534 1534 1533 1533 1533 1533 1533 1533 1533 1533 1533 1532 1532 1532 1532 1531 1531 1531 1531 1531 1530 1530 1530 1530 1530 1530 1529 1529 1528 1528 1529 1530 1531 1532 1533 1533 1534 1534 1535
1535 1535 1535 1534 1534 1534 1534 1534 1534 1534 1534 1534 1534 1533 1533 1533 1533 1532 1532 1532 1532 1532 1532 1532 1531 1531 1531 1531 1531 1531 1531 1530 1530 1531 1531 1532 1533 1533 1534 1534 1534 1535 1536
1535 1535 1535 1535 1535 1534 1534 1534 1534 1534 1534 1534 1534 1534 1534 1534 1534 1534 1533 1533 1533 1533 1533 1533 1532 1532 1532 1532 1532 1532 1532 1532 1532 1532 1533 1533 1533 1534 1534 1535 1535 1535 1536
1536 1535 1535 1535 1535 1534 1534 1534 1534 1534 1534 1534 1534 1534 1534 1535 1535 1535 1534 1534 1534 1534 1534 1534 1533 1533 1533 1533 1533 1533 1533 1533 1533 1533 1534 1534 1534 1534 1535 1535 1535 1536 1536
1536 1536 1535 1535 1535 1534 1534 1534 1534 1534 1534 1534 1534 1535 1535 1535 1535 1535 1535 1535 1535 1535 1535 1534 1534 1534 1534 1534 1534 1534 1534 1534 1534 1534 1535 1535 1535 1535 1536 1536 1536 1537 1538
1536 1535 1535 1535 1535 1534 1534 1534 1534 1534 1534 1534 1534 1534 1535 1535 1535 1535 1535 1535 1535 1535 1535 1535 1535 1535 1535 1535 1535 1535 1535 1535 1535 1535 1535 1536 1536 1536 1536 1537 1537 1538 1538
1535 1535 1535 1535 1534 1534 1534 1534 1534 1534 1534 1534 1534 1534 1535 1535 1535 1535 1535 1535 1535 1535 1535 1535 1535 1535 1536 1536 1536 1536 1535 1535 1535 1535 1536 1536 1537 1537 1537 1537 1538 1539 1539
1535 1535 1535 1534 1534 1534 1534 1533 1533 1533 1534 1534 1534 1534 1534 1535 1534 1534 1534 1535 1535 1535 1535 1535 1535 1536 1536 1536 1536 1536 1536 1536 1536 1536 1536 1537 1537 1537 1537 1538 1538 1539 1539
1534 1534 1534 1534 1534 1533 1533 1533 1533 1533 1533 1534 1534 1534 1534 1534 1534 1534 1534 1534 1534 1534 1534 1535 1535 1535 1535 1536 1536 1536 1536 1536 1536 1536 1537 1537 1537 1537 1538 1538 1538 1539 1539
1534 1533 1533 1533 1533 1533 1532 1532 1532 1532 1532 1532 1533 1533 1534 1533 1533 1533 1533 1533 1533 1533 1533 1533 1534 1534 1535 1535 1535 1536 1536 1536 1536 1537 1537 1537 1537 1537 1538 1538 1538 1539 1539
1532 1532 1532 1532 1532 1531 1531 1531 1531 1531 1531 1531 1531 1531 1532 1532 1532 1532 1531 1532 1532 1532 1532 1532 1532 1533 1533 1534 1535 1535 1536 1536 1536 1536 1537 1537 1537 1537 1537 1538 1538 1538 1539
1531 1531 1531 1530 1530 1530 1530 1530 1530 1530 1529 1530 1530 1529 1530 1530 1530 1530 1530 1530 1530 1530 1531 1531 1531 1531 1532 1533 1533 1534 1535 1535 1535 1536 1536 1536 1536 1537 1537 1537 1537 1538 1538
1529 1529 1529 1529 1528 1528 1528 1528 1528 1528 1528 1528 1528 1528 1528 1528 1529 1529 1529 1528 1528 1528 1529 1529 1529 1530 1530 1531 1532 1533 1533 1534 1534 1535 1535 1535 1536 1536 1536 1536 1537 1537 1537
1527 1527 1527 1527 1527 1527 1526 1526 1526 1526 1526 1526 1526 1526 1526 1526 1526 1526 1527 1527 1526 1526 1526 1527 1527 1528 1529 1529 1530 1531 1531 1532 1533 1534 1534 1534 1534 1535 1535 1535 1535 1536 1536
1525 1525 1525 1525 1525 1524 1524 1524 1523 1523 1524 1524 1524 1524 1524 1524 1524 1524 1524 1525 1525 1524 1524 1524 1525 1525 1526 1527 1528 1528 1529 1530 1531 1532 1532 1533 1533 1533 1533 1534 1534 1534 1534
1523 1523 1523 1522 1522 1522 1522 1521 1521 1521 1521 1521 1521 1521 1521 1521 1521 1521 1522 1522 1522 1523 1522 1522 1522 1523 1523 1524 1525 1526 1527 1528 1529 1529 1530 1531 1531 1531 1531 1532 1532 1532 1532
1521 1520 1520 1520 1520 1520 1519 1519 1518 1518 1518 1518 1518 1518 1519 1519 1519 1519 1519 1519 1519 1519 1519 1519 1520 1520 1521 1521 1522 1523 1524 1525 1526 1527 1527 1528 1528 1529 1529 1529 1530 1530 1530
1518 1518 1518 1517 1517 1517 1516 1516 1515 1515 1515 1515 1515 1515 1516 1516 1516 1516 1516 1516 1516 1516 1516 1516 1516 1517 1518 1519 1519 1520 1521 1522 1523 1523 1524 1525 1526 1526 1526 1527 1527 1527 1527
1515 1515 1515 1514 1514 1514 1513 1513 1512 1512 1512 1512 1512 1512 1512 1513 1513 1513 1513 1513 1513 1513 1513 1513 1513 1514 1515 1515 1516 1517 1518 1518 1519 1520 1521 1522 1522 1523 1523 1523 1524 1524 1525
1511 1512 1511 1511 1511 1511 1510 1510 1509 1509 1508 1508 1508 1508 1509 1509 1509 1510 1510 1510 1510 1510 1510 1510 1510 1511 1512 1512 1513 1513 1514 1515 1516 1517 1517 1518 1519 1519 1520 1520 1520 1521 1521
1508 1508 1508 1508 1507 1507 1507 1506 1506 1506 1505 1505 1505 1505 1505 1505 1506 1506 1506 1506 1506 1506 1506 1506 1507 1507 1508 1509 1509 1510 1511 1511 1512 1513 1513 1514 1515 1515 1516 1516 1517 1517 1518
1504 1504 1504 1504 1503 1503 1503 1503 1503 1502 1502 1502 1501 1501 1502 1502 1502 1502 1502 1503 1503 1503 1503 1503 1503 1504 1504 1505 1506 1507 1507 1508 1508 1509 1509 1510 1511 1511 1511 1512 1513 1513 1514
1500 1500 1500 1500 1499 1499 1499 1499 1499 1499 1499 1498 1498 1498 1498 1498 1499 1499 1499 1499 1499 1499 1500 1500 1500 1500 1501 1501 1502 1503 1503 1504 1504 1505 1505 1505 1506 1507 1508 1508 1509 1509 1510
1496 1496 1495 1495 1495 1495 1495 1495 1495 1495 1495 1495 1495 1495 1495 1495 1495 1495 1495 1495 1495 1496 1496 1496 1496 1497 1497 1498 1498 1499 1500 1500 1500 1501 1501 1501 1501 1502 1503 1504 1504 1505 1505
1492 1492 1491 1491 1491 1491 1491 1491 1491 1491 1491 1491 1491 1491 1491 1491 1492 1492 1491 1491 1492 1492 1492 1492 1493 1493 1493 1494 1494 1495 1495 1495 1495 1496 1497 1497 1497 1498 1498 1499 1499 1500 1500
1488 1488 1487 1487 1487 1486 1487 1487 1487 1487 1487 1487 1487 1487 1487 1488 1488 1488 1488 1487 1487 1487 1488 1488 1488 1488 1488 1489 1489 1490 1490 1490 1490 1491 1492 1493 1493 1494 1493 1494 1495 1495 1496